[Date Prev][Date Next][Thread Prev][Thread Next][Date Index][Thread Index]

[jamsat-news:1099] jas2info #141



========================   最新情報   ==============================

        Last updated :Fri.4-Jun.-1999 19:00 (JST) #141

====================================================================
   
     衛星情報 FOシリーズの軌道要素、テレメトリ、QSOの状況等を
   まとめてみました.

  1)  FO−29(ふじ3号)は、6月4日(月)15:24(JST)の
     パスでは JAアナログモードで運用されていました. 
       
 ■ 軌道要素1:「jamsat−keps:892」より
              SB KEPS @ AMSAT  $ORB99155.N
       2Line Orbital Elements 99155.AMSAT

  HR AMSAT ORBITAL ELEMENTS FOR AMATEUR SATELLITES IN NASA FORMAT
  FROM WA5QGD FORT WORTH,TX June 4, 1999
  SEND SUBSCRIBE/UNSUBSCRIBE TO majordomo@amsat.org ONLY
  BID: ORB99155.N
  
 DECODE 2-LINE ELSETS WITH THE FOLLOWING KEY:
 1 AAAAAU 00  0  0 BBBBB.BBBBBBBB  .CCCCCCCC  00000-0  00000-0 0  DDDZ
 2 AAAAA EEE.EEEE FFF.FFFF GGGGGGG HHH.HHHH III.IIII JJ.JJJJJJJJKKKKKZ
 KEY: A-CATALOGNUM B-EPOCHTIME C-DECAY D-ELSETNUM E-INCLINATION F-RAAN
 G-ECCENTRICITY H-ARGPERIGEE I-MNANOM J-MNMOTION K-ORBITNUM Z-CHECKSUM

 TO ALL RADIO AMATEURS BT

  FO-29
 1 24278U 96046B   99153.93530169  .00000052  00000-0  86678-4 0 02620
 2 24278 098.5611 106.9883 0352225 131.0350 232.1805 13.52668953137888

 ■ 軌道要素2:「jamsat−keps:893」より                         
         SB KEPS @ AMSAT  $ORB99155.O
         Orbital Elements  99155.OSCAR

 HR AMSAT ORBITAL ELEMENTS FOR OSCAR SATELLITES
 FROM WA5QGD FORT WORTH,TX June 4, 1999
 SEND SUBSCRIBE/UNSUBSCRIBE TO majordomo@amsat.org ONLY
 BID: ORB99155.O
 TO ALL RADIO AMATEURS BT

  Satellite: FO-29
 Catalog number: 24278
 Epoch time:      99153.93530169
 Element set:    0262
 Inclination:      098.5611 deg
 RA of node:       106.9883 deg
 Eccentricity:    0.0352225
 Arg of perigee:   131.0350 deg
 Mean anomaly:     232.1805 deg
 Mean motion:   13.52668953 rev/day
 Decay rate:        5.2e-07 rev/day^2
 Epoch rev:           13788
 Checksum:              318
 -----------------------------------------------------------
  2)FO−29(ふじ3号)の 6月4日(木)の15:24−15:41(JST)の
     パスではJAアナログモードで運用されテレメトリの一部分は次のようになっていました.
 AS13806P  4Jun99


 cmd:8J1JCS>BEACON [06/04/99  15:26:18]:


 JAS-2    '97/06/04 06:25:38


 9C 03 03 08 00 2C 00 00 00 00


 00 00 65 B0 AE 7D 4A 96 93 A1


 AA 52 A8 01 B9 B7 BC BC BA BB


         


 8J1JCS>BEACON [06/04/99  15:26:20]:95 02 00 09 00 00 81 40 00 00


 6E CF E3 50 68 9E A3 81 7A 7E


 00 00 00 AF 82 B3 F7 00 00 00


                                      


 8J1JCS>BEACON [06/04/99  15:26:21]:


 User not connect.


                                                                                                             


 8J1JCS>BEACON [06/04/99  15:26:22]:


 Total    3 File(s)




  No.  Date  UTC    To    From   Size   Subject


 0004 06/01 19:55 ALL    N5ZNL       83 Hi !!!


 0003 05/31 20:


 8J1JCS>BEACON [06/04/99  15:26:23]:50 ALL    N5ZNL       22 Greeting From MS. USA


 0001 05/22 04:22 ALL    JN1GKZ      75 hello


                                    


 8J1JCS>BEACON [06/04/99  15:28:19]:


 JAS-2    '97/06/04 06:27:38


 9C 03 03 08 00 2C 00 00 00 00


 00 00 65 B0 EA 8A 43 96 92 A0


 AA 52 A8 02 D1 B8 BC BC B9 BA


          


 8J1JCS>BEACON [06/04/99  15:28:20]:95 02 00 09 00 00 81 40 00 00


 90 CF D9 41 6E 9F A4 81 7A 7F


 00 00 00 AF 82 B3 F7 00 00 00


                                      


 8J1JCS>BEACON [06/04/99  15:28:21]:


 User not connect.


                                                                                                             


 8J1JCS>BEACON [06/04/99  15:28:22]:


 Total    3 File(s)




 No.  Date  UTC    To    From   Size   Subject


 0004 06/01 19:55 ALL    N5ZNL       83 Hi !!!


 0003 05/31 20:


 8J1JCS>BEACON [06/04/99  15:28:23]:50 ALL    N5ZNL       22 Greeting From MS. USA


 0001 05/22 04:22 ALL    JN1GKZ      75 hello


                                    


 8J1JCS>BEACON [06/04/99  15:30:19]:


 JAS-2    '97/06/04 06:29:38


 9C 03 03 08 00 2C 00 00 00 00


 00 00 65 B1 26 89 44 96 92 A0


 AA 52 A8 02 D0 B8 BC BC B9 BA


         


 8J1JCS>BEACON [06/04/99  15:30:20]:95 02 00 09 00 00 81 40 00 00


 96 CF D2 2D 65 A0 A4 81 7A 7F


 00 00 00 AE 82 B3 F7 00 00 00


                                      


 8J1JCS>BEACON [06/04/99  15:30:21]:


 User not connect.


                                                                                                             


 8J1JCS>BEACON [06/04/99  15:30:22]:


 Total    3 File(s)




  No.  Date  UTC    To    From   Size   Subject


 0004 06/01 19:55 ALL    N5ZNL       83 Hi !!!


 0003 05/31 20:


 8J1JCS>BEACON [06/04/99  15:30:23]:50 ALL    N5ZNL       22 Greeting From MS. USA


 0001 05/22 04:22 ALL    JN1GKZ      75 hello


                                    


 8J1JCS>BEACON [06/04/99  15:32:19]:


 JAS-2    '97/06/04 06:31:38


 9C 03 63 08 00 2C 00 00 00 00


 00 00 65 B1 62 80 60 93 90 B0


 AA 53 A8 02 75 B8 BC BB B9 BA


         


 8J1JCS>BEACON [06/04/99  15:32:20]:95 02 00 09 00 00 81 40 00 00


 7B CF CF 30 60 9E A3 82 7A 80


 00 00 00 AD 82 B3 F7 00 00 00


                                      


 8J1JCS>BEACON [06/04/99  15:32:21]:


 User not connect.


                                                                                                             


 8J1JCS>BEACON [06/04/99  15:32:22]:


 Total    3 File(s)




  No.  Date  UTC    To    From   Size   Subject


 0004 06/01 19:55 ALL    N5ZNL       83 Hi !!!


 0003 05/31 20:


 8J1JCS>BEACON [06/04/99  15:32:23]:50 ALL    N5ZNL       22 Greeting From MS. USA


 0001 05/22 04:22 ALL    JN1GKZ      75 hello


                                    


 8J1JCS>BEACON [06/04/99  15:34:19]:


 JAS-2    '97/06/04 06:33:38


 9C 03 63 08 00 2C 00 00 00 00


 00 00 65 B1 9E 8C 60 93 90 B0


 AB 52 A8 02 CC B8 BB BB B9 BA


         


 8J1JCS>BEACON [06/04/99  15:34:20]:95 02 00 09 00 00 81 40 00 00


 49 CF CC 42 26 9B A0 82 7B 81


 00 00 00 AD 82 B3 F7 00 00 00


                                      


 8J1JCS>BEACON [06/04/99  15:34:21]:


 User not connect.


                                                                                                             


 8J1JCS>BEACON [06/04/99  15:34:22]:


 Total    3 File(s)




  No.  Date  UTC    To    From   Size   Subject


 0004 06/01 19:55 ALL    N5ZNL       83 Hi !!!


 0003 05/31 20:


 8J1JCS>BEACON [06/04/99  15:34:23]:50 ALL    N5ZNL       22 Greeting From MS. USA


 0001 05/22 04:22 ALL    JN1GKZ      75 hello


                                    


 8J1JCS>BEACON [06/04/99  15:36:19]:


 JAS-2    '97/06/04 06:35:38


 9C 03 63 08 00 2C 00 00 00 00


 00 00 65 B1 DA 8D 60 95 92 B0


 AB 51 A8 01 CB B8 BB BB B8 B9


         


 8J1JCS>BEACON [06/04/99  15:36:20]:95 02 00 09 00 00 81 40 00 00


 22 CF CC 5A 2F 98 9C 83 7B 81


 00 00 00 AD 82 B3 F7 00 00 00


                                      


 8J1JCS>BEACON [06/04/99  15:36:21]:


 User not connect.


                                                                                                             


 8J1JCS>BEACON [06/04/99  15:36:22]:


 Total    3 File(s)




  No.  Date  UTC    To    From   Size   Subject


 0004 06/01 19:55 ALL    N5ZNL       83 Hi !!!


 0003 05/31 20:


 8J1JCS>BEACON [06/04/99  15:36:23]:50 ALL    N5ZNL       22 Greeting From MS. USA


 0001 05/22 04:22 ALL    JN1GKZ      75 hello


                                    


 8J1JCS>BEACON [06/04/99  15:38:18]:


 JAS-2    '97/06/04 06:37:38


 9C 03 03 08 00 2C 00 00 00 00


 00 00 65 B2 16 87 4A 94 90 9E


 AA 52 A8 02 B7 B8 BB BB B8 B9


         


 8J1JCS>BEACON [06/04/99  15:38:19]:95 02 00 09 00 00 81 40 00 00


 3B CF D1 72 2E 96 9A 83 7C 82


 00 00 00 AB 82 B3 F7 00 00 00


                                      


 8J1JCS>BEACON [06/04/99  15:38:20]:


 User not connect.


                                                                                                             


 8J1JCS>BEACON [06/04/99  15:38:21]:


 Total    3 File(s)




  No.  Date  UTC    To    From   Size   Subject


 0004 06/01 19:55 ALL    N5ZNL       83 Hi !!!


 0003 05/31 20:


 8J1JCS>BEACON [06/04/99  15:38:22]:50 ALL    N5ZNL       22 Greeting From MS. USA


 0001 05/22 04:22 ALL    JN1GKZ      75 hello


                                    


 8J1JCS>BEACON [06/04/99  15:40:18]:


 JAS-2    '97/06/04 06:39:38


 9C 03 63 08 00 2C 00 00 00 00


 00 00 65 B2 52 7A 60 93 90 B0


 AA 52 A8 02 E5 B8 BB BA B8 B9


         


 8J1JCS>BEACON [06/04/99  15:40:19]:95 02 00 09 00 00 81 40 00 00


 74 CF D8 86 2F 96 9A 83 7D 83


 00 00 00 AB 81 B3 F7 00 00 00


                                      


 8J1JCS>BEACON [06/04/99  15:40:20]:


 User not connect.


                                                                                                             


 8J1JCS>BEACON [06/04/99  15:40:21]:


 Total    3 File(s)




  No.  Date  UTC    To    From   Size   Subject


 0004 06/01 19:55 ALL    N5ZNL       83 Hi !!!


 0003 05/31 20:


 8J1JCS>BEACON [06/04/99  15:40:23]:50 ALL    N5ZNL       22 Greeting From MS. USA


 0001 05/22 04:22 ALL    JN1GKZ      75 hello


                                    


 *AS13805P 4Jun99


 cmd:8J1JCS>BEACON [06/04/99  13:39:23]:9C 03 03 08 00 2C 00 00 00 00


 00 00 65 A4 29 73 50 94 91 9E


 AA 52 A8 02 B5 B7 BC BC B9 BB


                                      


 8J1JCS>BEACON [06/04/99  13:39:24]:95 02 00 09 00 00 7F 40 00 00


 D7 CF F6 4B 64 9F A4 7F 7A 80


 00 00 00 B0 81 B3 F7 00 00 00


                                      


 8J1JCS>BEACON [06/04/99  13:39:25]:9C 03 03 08 00 2C 00 00 00 00


 00 00 65 A4 29 74 50 94 90 9E


 AA 52 A8 01 81 B7 BC BC BA BB 

 *AS13793P  3Jun99


 cmd:8J1JCS>BEACON [06/03/99  16:23:58]:


 JAS-2    '97/06/03 07:23:38


 9C 03 63 08 00 2C 00 00 00 00


 00 00 65 0E BA 87 60 95 91 B0


 AA 52 A8 02 E4 B7 BC BC B9 BA


         


 8J1JCS>BEACON [06/03/99  16:24:01]:


 Total    3 File(s)




  No.  Date  UTC    To    From   Size   Subject

